COSMOS 1275 DEB, 42166

Orbit data source: Space-Track

COSMOS 1275 DEB, 42166 is space debris in LEO originally from a launch on Thu, 04 Jun 1981 UTC launched from the Plesetsk Missile And Space Complex (PKMTR). Debris objects in space refer to the collection of defunct objects orbiting the Earth. Examples of debris include non-operational satellites, rocket bodies, and fragments generated from explosions, collisions, or faulty payload assembly.

Loading next visibility...
Identifier
42166, 1981-053SE
Orbit
LEO
Country
Flag of CISCIS
Related business
Manufacturer
Unknown
Mission
Spacecraft
Bus & Motor
Unknown
Mass
Unknown
Launch date (UTC)
1981-06-04 (45 years ago)
Launch vehicle
Unknown
Launch site
Plesetsk Missile And Space Complex (PKMTR)
Object type
Payload
Rocket body
Debris
Shape & HBR
Unknown shape, 0.1 m
Radar Cross Section
Small (<0.1 m²)

Expand to show TLE details & history
Last TLE update: 4 days ago

TLE from 4 days ago
0 COSMOS 1275 DEB
1 42166U 81053SE  26147.04277174  .00001746  00000-0  11151-2 0  9997
2 42166  82.8818 264.1511 0136411 247.3679 111.3016 13.98623544633088
Epoch: 2026-05-27T01:01Z
TLE epoch observation values (Epoch: 2026-05-27T01:01:35.478Z)
Latitude
0.00005°
Longitude
4.14575°
Altitude
938.73 km
Speed
7.364 km/s
True Right ascension
17h 36m 36s
True Declination
0° 00' 00"
Sunlit
Object was in full shadow at epoch
Visualization orbit readout
Latitude
Unknown
Longitude
Unknown
Altitude
Unknown
Speed
Unknown
Apparent Right ascension
Unknown
Apparent Declination
Unknown
Sunlit
N/A
Visualization observer readout
Local Sidereal Time
06:22:13
Azimuth
Unknown
Elevation
Unknown
Doppler factor
Unknown
Orbital elements
Apogee altitude
994.906 km
Perigee altitude
796.46 km
Semi-major axis
7,273.82 km
Eccentricity
0.01364
Inclination
82.8818°
RAAN
264.1511°
Arg. of periapsis
247.3679°
True anomaly
112.74884°
Mean anomaly
111.3016°
Eccentric anomaly
112.02613°
Mean motion
3.49864 °/min
Orbital period
102.9 mins
BSTAR
0.0011151
Loading maneuver chart data...
Computing Atmospheric mass density...
Loading historical data...
Loading historical data...
Loading historical data...
Loading historical data...
Loading historical data...
Loading historical data...
Loading historical data...

Documentation

Showing up to 5 results
|